Всё
Gamurruguyurru Airport YGMG Погода
There is no TAF data available at YGMG or any nearby airports.
There is no METAR data available at YGMG. Showing METAR data for YMGB (9 mi В).
Недавняя история METAR для MGT (для YGMG данные отсутствуют)
| Date | Time (ACST) | Flight Rules | Wind Dir. | Speed | Type | Height AGL (ft) | Visibility | Temp (°C) | Temp (°F) | Dew Point (°C) | Dew Point (°F) | Rel. Humid. | Pressure | Density Altitude | Remarks |
|---|---|---|---|---|---|---|---|---|---|---|---|---|---|---|---|
| 06-май | 04:30 | n/a | 150° | 5 kt | Missing | 24° | 75° | 22° | 71° | 89% | 1011 mb | 1,198 ft | |||
| 06-май | 03:30 | n/a | 150° | 5 kt | Missing | 24° | 75° | 23° | 73° | 94% | 1011 mb | 1,198 ft | |||
| 06-май | 02:30 | n/a | 150° | 4 kt | Missing | 24° | 75° | 23° | 73° | 94% | 1011 mb | 1,198 ft | |||
| 06-май | 01:30 | n/a | 150° | 6 kt | Missing | 25° | 77° | 23° | 73° | 89% | 1011 mb | 1,318 ft | |||
| 06-май | 00:30 | n/a | 150° | 7 kt | Missing | 25° | 77° | 23° | 73° | 89% | 1012 mb | 1,289 ft | |||
| 05-май | 23:30 | n/a | 140° | 7 kt | Missing | 26° | 78° | 23° | 73° | 84% | 1012 mb | 1,409 ft | |||
| 05-май | 22:30 | n/a | 130° | 7 kt | Missing | 26° | 78° | 23° | 73° | 84% | 1012 mb | 1,409 ft | |||
| 05-май | 21:30 | n/a | 130° | 7 kt | Missing | 27° | 80° | 22° | 71° | 74% | 1012 mb | 1,529 ft | |||
| 05-май | 20:30 | n/a | 140° | 6 kt | Missing | 27° | 80° | 22° | 71° | 74% | 1012 mb | 1,529 ft | |||
| 05-май | 19:30 | n/a | 140° | 5 kt | Missing | 28° | 82° | 22° | 71° | 70% | 1010 mb | 1,708 ft | |||
| 05-май | 18:30 | n/a | 140° | 6 kt | Missing | 29° | 84° | 22° | 71° | 66% | 1010 mb | 1,828 ft | |||
| 05-май | 17:30 | n/a | 100° | 4 kt | Missing | 30° | 86° | 23° | 73° | 66% | 1009 mb | 1,977 ft | |||
| 05-май | 16:30 | n/a | 90° | 6 kt | Missing | 31° | 87° | 23° | 73° | 63% | 1009 mb | 2,097 ft | |||
| 05-май | 15:30 | n/a | 70° | 8 kt | Missing | 32° | 89° | 21° | 69° | 52% | 1009 mb | 2,217 ft | |||
| 05-май | 14:30 | n/a | 70° | 7 kt | Missing | 32° | 89° | 24° | 75° | 63% | 1009 mb | 2,217 ft | |||
| 05-май | 13:30 | n/a | 90° | 7 kt | Missing | 32° | 89° | 23° | 73° | 59% | 1010 mb | 2,188 ft | |||
| 05-май | 12:30 | n/a | 100° | 7 kt | Missing | 32° | 89° | 24° | 75° | 63% | 1011 mb | 2,158 ft | |||
| 05-май | 11:30 | n/a | 130° | 8 kt | Missing | 32° | 89° | 24° | 75° | 63% | 1011 mb | 2,158 ft | |||
| 05-май | 10:30 | n/a | 120° | 8 kt | Missing | 30° | 86° | 23° | 73° | 66% | 1012 mb | 1,889 ft | |||
| 05-май | 09:30 | n/a | 130° | 8 kt | Missing | 29° | 84° | 25° | 77° | 79% | 1013 mb | 1,739 ft | |||
| 05-май | 08:30 | n/a | 140° | 7 kt | Missing | 26° | 78° | 24° | 75° | 89% | 1012 mb | 1,409 ft | |||
| 05-май | 07:30 | n/a | 150° | 6 kt | Missing | 25° | 77° | 24° | 75° | 94% | 1012 mb | 1,289 ft | |||
| 05-май | 06:30 | n/a | 140° | 4 kt | Missing | 24° | 75° | 23° | 73° | 94% | 1011 mb | 1,198 ft | |||
| 05-май | 05:30 | n/a | 150° | 5 kt | Missing | 24° | 75° | 24° | 75° | 100% | 1010 mb | 1,228 ft |
Вход
| Ваш браузер не поддерживается.. обновите веб-браузер |
